| time (UTC) | temp F | wind direction | speed knots | gust knots | rain 1hr in | rain 24hr in | rain mn in | humidity % | barometer mb |
| 20260509221031 | 48 | 0 | 0.0 | 0.9 | 0.02 | 0.39 | 0.39 | 96 | 1011.5 |
| 20260509220531 | 48 | 356 | 0.0 | 0.9 | 0.02 | 0.39 | 0.39 | 96 | 1011.5 |
| 20260509220041 | 48 | 0 | 0.0 | 0.9 | 0.02 | 0.39 | 0.39 | 96 | 1011.6 |
| 20260509215530 | 48 | 346 | 0.0 | 0.9 | 0.03 | 0.39 | 0.39 | 96 | 1011.3 |
| 20260509215029 | 48 | 0 | 0.0 | 0.9 | 0.03 | 0.39 | 0.39 | 95 | 1011.5 |
| 20260509214536 | 48 | 0 | 0.0 | 0.9 | 0.04 | 0.39 | 0.39 | 95 | 1011.5 |
| 20260509214029 | 48 | 0 | 0.0 | 0.0 | 0.04 | 0.39 | 0.39 | 95 | 1011.5 |
| 20260509213530 | 48 | 0 | 0.0 | 0.0 | 0.05 | 0.39 | 0.39 | 95 | 1011.6 |
| 20260509213055 | 48 | 0 | 0.0 | 0.0 | 0.05 | 0.39 | 0.39 | 95 | 1011.5 |
| 20260509212529 | 48 | 0 | 0.0 | 0.0 | 0.05 | 0.38 | 0.38 | 95 | 1011.7 |
| 20260509212029 | 48 | 0 | 0.0 | 0.0 | 0.05 | 0.38 | 0.38 | 95 | 1011.6 |
| 20260509211543 | 48 | 0 | 0.0 | 0.0 | 0.04 | 0.37 | 0.37 | 95 | 1011.7 |
| 20260509211030 | 48 | 0 | 0.0 | 0.9 | 0.05 | 0.37 | 0.37 | 95 | 1011.8 |
| 20260509210530 | 48 | 0 | 0.0 | 0.9 | 0.05 | 0.37 | 0.37 | 95 | 1012.0 |
| 20260509210053 | 48 | 0 | 0.0 | 0.9 | 0.05 | 0.37 | 0.37 | 95 | 1011.8 |
| 20260509205529 | 48 | 0 | 0.0 | 0.9 | 0.05 | 0.36 | 0.36 | 94 | 1012.1 |
| 20260509205027 | 48 | 0 | 0.0 | 0.9 | 0.05 | 0.36 | 0.36 | 94 | 1012.1 |
| 20260509204543 | 48 | 0 | 0.0 | 0.0 | 0.05 | 0.35 | 0.35 | 94 | 1012.1 |
| 20260509204029 | 48 | 0 | 0.0 | 0.0 | 0.05 | 0.35 | 0.35 | 94 | 1012.1 |
| 20260509203526 | 48 | 0 | 0.0 | 0.0 | 0.04 | 0.34 | 0.34 | 94 | 1012.3 |
| 20260509203041 | 48 | 0 | 0.0 | 0.0 | 0.03 | 0.33 | 0.33 | 94 | 1012.3 |
| 20260509202527 | 48 | 0 | 0.0 | 0.9 | 0.04 | 0.33 | 0.33 | 94 | 1012.4 |
| 20260509202030 | 49 | 0 | 0.0 | 0.9 | 0.04 | 0.33 | 0.33 | 94 | 1012.3 |
| 20260509201538 | 48 | 0 | 0.0 | 0.9 | 0.04 | 0.33 | 0.33 | 94 | 1012.3 |
| 20260509201029 | 49 | 0 | 0.0 | 0.0 | 0.03 | 0.32 | 0.32 | 94 | 1012.4 |
| 20260509200529 | 49 | 0 | 0.0 | 0.0 | 0.04 | 0.32 | 0.32 | 94 | 1012.4 |
| 20260509200046 | 49 | 0 | 0.0 | 0.0 | 0.04 | 0.32 | 0.32 | 94 | 1012.5 |
| 20260509195531 | 49 | 0 | 0.0 | 0.9 | 0.03 | 0.31 | 0.31 | 94 | 1012.6 |
| 20260509195029 | 49 | 0 | 0.0 | 0.9 | 0.03 | 0.31 | 0.31 | 94 | 1012.4 |
| 20260509194543 | 49 | 0 | 0.0 | 0.9 | 0.02 | 0.30 | 0.30 | 94 | 1012.6 |
| 20260509194035 | 49 | 0 | 0.0 | 0.9 | 0.02 | 0.30 | 0.30 | 94 | 1012.5 |
| 20260509193532 | 48 | 0 | 0.0 | 0.9 | 0.02 | 0.30 | 0.30 | 94 | 1012.4 |
| 20260509193045 | 48 | 0 | 0.0 | 0.9 | 0.02 | 0.30 | 0.30 | 94 | 1012.5 |
| 20260509192529 | 48 | 0 | 0.0 | 0.0 | 0.01 | 0.29 | 0.29 | 94 | 1012.5 |
| 20260509192029 | 48 | 0 | 0.0 | 0.0 | 0.01 | 0.29 | 0.29 | 94 | 1012.5 |
| 20260509191543 | 48 | 0 | 0.0 | 0.9 | 0.01 | 0.29 | 0.29 | 94 | 1012.3 |
| 20260509191032 | 48 | 0 | 0.0 | 0.9 | 0.01 | 0.29 | 0.29 | 94 | 1012.6 |
| 20260509190529 | 48 | 0 | 0.0 | 0.9 | 0.01 | 0.28 | 0.28 | 93 | 1012.7 |
| 20260509190045 | 48 | 0 | 0.0 | 0.9 | 0.01 | 0.28 | 0.28 | 93 | 1012.6 |
| 20260509185528 | 48 | 296 | 0.0 | 0.9 | 0.01 | 0.28 | 0.28 | 93 | 1012.4 |
| 20260509185028 | 48 | 328 | 0.0 | 0.9 | 0.01 | 0.28 | 0.28 | 93 | 1012.5 |
| 20260509184552 | 48 | 0 | 0.0 | 0.9 | 0.01 | 0.28 | 0.28 | 93 | 1012.5 |
| 20260509184026 | 48 | 0 | 0.0 | 0.9 | 0.01 | 0.28 | 0.28 | 94 | 1012.4 |
| 20260509183526 | 48 | 0 | 0.0 | 0.9 | 0.02 | 0.28 | 0.28 | 94 | 1012.6 |
| 20260509183040 | 48 | 0 | 0.0 | 1.7 | 0.02 | 0.28 | 0.28 | 94 | 1012.7 |
| 20260509182530 | 47 | 333 | 0.9 | 1.7 | 0.03 | 0.28 | 0.28 | 93 | 1012.6 |
| 20260509182030 | 47 | 326 | 0.9 | 1.7 | 0.03 | 0.28 | 0.28 | 93 | 1012.7 |
| 20260509181552 | 47 | 321 | 0.0 | 3.5 | 0.04 | 0.28 | 0.28 | 93 | 1013.0 |
| 20260509181030 | 47 | 0 | 0.0 | 3.5 | 0.04 | 0.28 | 0.28 | 93 | 1013.0 |
| 20260509180526 | 47 | 37 | 0.9 | 3.5 | 0.03 | 0.27 | 0.27 | 93 | 1012.8 |
| 20260509180046 | 47 | 0 | 0.0 | 1.7 | 0.04 | 0.27 | 0.27 | 93 | 1013.0 |
| 20260509175534 | 47 | 0 | 0.0 | 0.9 | 0.04 | 0.27 | 0.27 | 94 | 1012.9 |
| 20260509175027 | 47 | 191 | 0.0 | 0.9 | 0.04 | 0.27 | 0.27 | 94 | 1013.1 |
| 20260509174538 | 46 | 191 | 0.0 | 2.6 | 0.05 | 0.27 | 0.27 | 94 | 1013.3 |
| 20260509174029 | 46 | 0 | 0.0 | 2.6 | 0.05 | 0.27 | 0.27 | 94 | 1013.2 |
| 20260509173525 | 46 | 300 | 0.0 | 2.6 | 0.04 | 0.26 | 0.26 | 93 | 1013.2 |
| 20260509173046 | 46 | 0 | 0.9 | 1.7 | 0.04 | 0.26 | 0.26 | 93 | 1013.3 |
| 20260509172529 | 46 | 0 | 0.0 | 1.7 | 0.04 | 0.25 | 0.25 | 93 | 1013.3 |
| 20260509172029 | 46 | 323 | 0.0 | 1.7 | 0.04 | 0.25 | 0.25 | 94 | 1013.3 |
| 20260509171542 | 46 | 0 | 0.0 | 1.7 | 0.03 | 0.24 | 0.24 | 93 | 1013.5 |
| 20260509171029 | 46 | 0 | 0.0 | 0.9 | 0.03 | 0.24 | 0.24 | 93 | 1013.6 |
| 20260509170529 | 46 | 0 | 0.0 | 0.9 | 0.04 | 0.24 | 0.24 | 92 | 1013.6 |
| 20260509170049 | 46 | 0 | 0.0 | 0.9 | 0.03 | 0.23 | 0.23 | 92 | 1013.9 |
| 20260509165530 | 46 | 255 | 0.0 | 0.9 | 0.03 | 0.23 | 0.23 | 93 | 1013.9 |
| 20260509165029 | 46 | 0 | 0.0 | 0.9 | 0.03 | 0.23 | 0.23 | 93 | 1013.8 |
| 20260509164544 | 46 | 345 | 0.0 | 2.6 | 0.02 | 0.22 | 0.22 | 93 | 1013.9 |
| 20260509164032 | 46 | 0 | 0.0 | 2.6 | 0.02 | 0.22 | 0.22 | 92 | 1014.0 |
| 20260509163529 | 47 | 270 | 0.0 | 0.9 | 0.03 | 0.22 | 0.22 | 92 | 1013.8 |
| 20260509163039 | 47 | 0 | 0.0 | 0.9 | 0.03 | 0.22 | 0.22 | 92 | 1013.9 |
| 20260509162530 | 47 | 0 | 0.0 | 0.9 | 0.02 | 0.21 | 0.21 | 92 | 1014.0 |
| 20260509162029 | 47 | 0 | 0.0 | 0.9 | 0.02 | 0.21 | 0.21 | 92 | 1014.1 |
| 20260509161537 | 46 | 0 | 0.0 | 1.7 | 0.02 | 0.21 | 0.21 | 93 | 1014.2 |
| 20260509161029 | 46 | 0 | 0.0 | 1.7 | 0.02 | 0.21 | 0.21 | 92 | 1014.2 |
| 20260509160532 | 46 | 0 | 0.0 | 0.0 | 0.01 | 0.20 | 0.20 | 93 | 1014.1 |
| 20260509160046 | 46 | 0 | 0.0 | 0.0 | 0.02 | 0.20 | 0.20 | 92 | 1014.2 |
| 20260509155529 | 46 | 0 | 0.0 | 0.9 | 0.02 | 0.20 | 0.20 | 92 | 1014.2 |
| 20260509155032 | 46 | 0 | 0.0 | 0.9 | 0.02 | 0.20 | 0.20 | 92 | 1014.1 |
| 20260509154545 | 46 | 0 | 0.0 | 0.9 | 0.02 | 0.20 | 0.20 | 92 | 1014.2 |
| 20260509154033 | 46 | 0 | 0.0 | 1.7 | 0.02 | 0.20 | 0.20 | 92 | 1014.0 |
| 20260509153529 | 46 | 0 | 0.0 | 1.7 | 0.01 | 0.19 | 0.19 | 93 | 1014.0 |
| 20260509153057 | 46 | 330 | 0.0 | 1.7 | 0.01 | 0.19 | 0.19 | 92 | 1014.0 |
| 20260509152529 | 46 | 331 | 0.0 | 1.7 | 0.02 | 0.19 | 0.19 | 92 | 1013.9 |
| 20260509152029 | 46 | 336 | 0.0 | 1.7 | 0.02 | 0.19 | 0.19 | 92 | 1014.0 |
| 20260509151538 | 46 | 0 | 0.0 | 3.5 | 0.02 | 0.19 | 0.19 | 93 | 1013.9 |
| 20260509151030 | 46 | 0 | 0.9 | 3.5 | 0.02 | 0.19 | 0.19 | 93 | 1014.0 |
| 20260509150529 | 45 | 3 | 0.9 | 3.5 | 0.02 | 0.19 | 0.19 | 92 | 1014.1 |
| 20260509150040 | 46 | 75 | 0.0 | 3.5 | 0.02 | 0.18 | 0.18 | 94 | 1014.0 |
| 20260509145529 | 46 | 354 | 0.9 | 3.5 | 0.02 | 0.18 | 0.18 | 93 | 1014.1 |
| 20260509145030 | 45 | 19 | 0.0 | 0.9 | 0.02 | 0.18 | 0.18 | 94 | 1014.2 |
| 20260509144542 | 45 | 0 | 0.0 | 0.9 | 0.02 | 0.18 | 0.18 | 94 | 1014.2 |
| 20260509144031 | 45 | 0 | 0.0 | 1.7 | 0.02 | 0.18 | 0.18 | 95 | 1014.3 |
| 20260509143531 | 45 | 334 | 0.0 | 1.7 | 0.03 | 0.18 | 0.18 | 95 | 1014.2 |
| 20260509143043 | 44 | 341 | 0.0 | 1.7 | 0.03 | 0.18 | 0.18 | 95 | 1014.3 |
| 20260509142529 | 44 | 277 | 0.0 | 1.7 | 0.02 | 0.17 | 0.17 | 95 | 1014.3 |
| 20260509142029 | 44 | 306 | 0.0 | 1.7 | 0.02 | 0.17 | 0.17 | 95 | 1014.2 |
| 20260509141543 | 44 | 359 | 0.0 | 0.9 | 0.02 | 0.17 | 0.17 | 95 | 1014.3 |
| 20260509141032 | 44 | 328 | 0.0 | 0.9 | 0.02 | 0.17 | 0.17 | 95 | 1014.3 |
| 20260509140530 | 44 | 301 | 0.0 | 0.9 | 0.02 | 0.17 | 0.17 | 95 | 1014.4 |
| 20260509140047 | 44 | 321 | 0.0 | 0.9 | 0.02 | 0.16 | 0.16 | 95 | 1014.4 |
| 20260509135529 | 43 | 333 | 0.0 | 0.9 | 0.02 | 0.16 | 0.16 | 94 | 1014.5 |
| 20260509135029 | 43 | 0 | 0.0 | 0.0 | 0.03 | 0.16 | 0.16 | 95 | 1014.5 |
| 20260509134540 | 43 | 0 | 0.0 | 0.9 | 0.03 | 0.16 | 0.16 | 95 | 1014.5 |
| 20260509134029 | 43 | 0 | 0.0 | 0.9 | 0.03 | 0.16 | 0.16 | 95 | 1014.6 |
| 20260509133530 | 42 | 0 | 0.0 | 0.9 | 0.03 | 0.15 | 0.15 | 95 | 1014.6 |
| 20260509133045 | 42 | 0 | 0.0 | 0.9 | 0.03 | 0.15 | 0.15 | 95 | 1014.7 |
| 20260509132528 | 42 | 0 | 0.0 | 0.9 | 0.03 | 0.15 | 0.15 | 95 | 1014.7 |
| 20260509132030 | 42 | 0 | 0.0 | 0.9 | 0.03 | 0.15 | 0.15 | 94 | 1014.6 |
| 20260509131544 | 42 | 354 | 0.0 | 0.9 | 0.03 | 0.15 | 0.15 | 94 | 1014.7 |
| 20260509131029 | 42 | 0 | 0.0 | 0.9 | 0.03 | 0.15 | 0.15 | 94 | 1014.7 |
| 20260509130531 | 42 | 0 | 0.0 | 0.0 | 0.03 | 0.15 | 0.15 | 95 | 1014.6 |
| 20260509130041 | 42 | 0 | 0.0 | 0.0 | 0.02 | 0.14 | 0.14 | 95 | 1014.8 |
| 20260509125533 | 42 | 0 | 0.0 | 0.0 | 0.02 | 0.14 | 0.14 | 95 | 1014.7 |
| 20260509125029 | 41 | 0 | 0.0 | 0.0 | 0.01 | 0.13 | 0.13 | 95 | 1014.6 |
| 20260509124544 | 41 | 0 | 0.0 | 0.0 | 0.01 | 0.13 | 0.13 | 95 | 1014.7 |
| 20260509124029 | 41 | 0 | 0.0 | 0.0 | 0.01 | 0.13 | 0.13 | 95 | 1014.7 |
| 20260509123529 | 41 | 0 | 0.0 | 0.0 | 0.00 | 0.12 | 0.12 | 95 | 1015.0 |
| 20260509123043 | 41 | 0 | 0.0 | 0.0 | 0.01 | 0.12 | 0.12 | 95 | 1014.7 |
| 20260509122529 | 41 | 0 | 0.0 | 0.0 | 0.01 | 0.12 | 0.12 | 95 | 1014.6 |
| 20260509122029 | 41 | 0 | 0.0 | 0.0 | 0.01 | 0.12 | 0.12 | 95 | 1014.7 |
| 20260509121540 | 40 | 0 | 0.0 | 0.0 | 0.01 | 0.12 | 0.12 | 95 | 1014.9 |
| 20260509121029 | 40 | 0 | 0.0 | 0.0 | 0.01 | 0.12 | 0.12 | 95 | 1014.9 |
| 20260509120529 | 40 | 0 | 0.0 | 0.9 | 0.01 | 0.12 | 0.12 | 95 | 1014.9 |
| 20260509120058 | 40 | 0 | 0.0 | 0.9 | 0.01 | 0.12 | 0.12 | 95 | 1015.1 |
| 20260509115528 | 40 | 327 | 0.0 | 0.0 | 0.02 | 0.12 | 0.12 | 95 | 1015.0 |
| 20260509115029 | 40 | 0 | 0.0 | 0.0 | 0.02 | 0.12 | 0.12 | 95 | 1014.9 |
| 20260509114544 | 40 | 0 | 0.0 | 0.0 | 0.02 | 0.12 | 0.12 | 94 | 1015.0 |
| 20260509114031 | 40 | 0 | 0.0 | 0.9 | 0.02 | 0.12 | 0.12 | 94 | 1014.9 |
| 20260509113529 | 40 | 0 | 0.0 | 0.9 | 0.03 | 0.12 | 0.12 | 94 | 1015.1 |
| 20260509113043 | 39 | 0 | 0.0 | 0.9 | 0.03 | 0.11 | 0.11 | 94 | 1015.2 |
| 20260509112529 | 39 | 0 | 0.0 | 0.0 | 0.03 | 0.11 | 0.11 | 94 | 1015.1 |
| 20260509112029 | 39 | 0 | 0.0 | 0.0 | 0.03 | 0.11 | 0.11 | 94 | 1015.2 |
| 20260509111542 | 39 | 0 | 0.0 | 0.0 | 0.04 | 0.11 | 0.11 | 94 | 1015.1 |
| 20260509111029 | 39 | 0 | 0.0 | 0.0 | 0.05 | 0.11 | 0.11 | 94 | 1015.3 |
| 20260509110527 | 39 | 0 | 0.0 | 0.0 | 0.05 | 0.11 | 0.11 | 94 | 1015.4 |
| 20260509110044 | 39 | 0 | 0.0 | 0.0 | 0.06 | 0.11 | 0.11 | 94 | 1015.4 |
| 20260509105526 | 39 | 0 | 0.0 | 0.0 | 0.05 | 0.10 | 0.10 | 94 | 1015.4 |
| 20260509105026 | 39 | 0 | 0.0 | 0.0 | 0.06 | 0.10 | 0.10 | 94 | 1015.4 |
| 20260509104538 | 39 | 0 | 0.0 | 0.0 | 0.06 | 0.10 | 0.10 | 94 | 1015.6 |
| 20260509104026 | 39 | 0 | 0.0 | 0.0 | 0.06 | 0.09 | 0.09 | 94 | 1015.5 |
| 20260509103526 | 39 | 0 | 0.0 | 0.0 | 0.06 | 0.09 | 0.09 | 94 | 1015.5 |
| 20260509103038 | 39 | 0 | 0.0 | 0.9 | 0.05 | 0.08 | 0.08 | 94 | 1015.4 |
| 20260509102527 | 39 | 0 | 0.0 | 0.9 | 0.06 | 0.08 | 0.08 | 94 | 1015.5 |
| 20260509102029 | 39 | 262 | 0.0 | 0.9 | 0.06 | 0.08 | 0.08 | 94 | 1015.2 |
| 20260509101545 | 39 | 0 | 0.0 | 0.9 | 0.05 | 0.07 | 0.07 | 94 | 1015.2 |
| 20260509101031 | 39 | 0 | 0.0 | 0.9 | 0.05 | 0.06 | 0.06 | 94 | 1015.0 |
| 20260509100529 | 39 | 0 | 0.0 | 0.0 | 0.05 | 0.06 | 0.06 | 93 | 1015.1 |
| 20260509100045 | 39 | 0 | 0.0 | 0.0 | 0.05 | 0.05 | 0.05 | 93 | 1014.9 |
| 20260509095530 | 39 | 0 | 0.0 | 0.0 | 0.05 | 0.05 | 0.05 | 93 | 1015.2 |
| 20260509095026 | 39 | 0 | 0.0 | 0.0 | 0.04 | 0.04 | 0.04 | 93 | 1015.1 |
| 20260509094542 | 39 | 0 | 0.0 | 0.0 | 0.04 | 0.04 | 0.04 | 93 | 1015.1 |
| 20260509094026 | 39 | 0 | 0.0 | 0.0 | 0.03 | 0.03 | 0.03 | 93 | 1015.2 |
| 20260509093526 | 39 | 0 | 0.0 | 0.0 | 0.03 | 0.03 | 0.03 | 92 | 1015.1 |
| 20260509093038 | 39 | 0 | 0.0 | 0.0 | 0.03 | 0.03 | 0.03 | 92 | 1014.9 |
| 20260509092526 | 39 | 0 | 0.0 | 0.0 | 0.02 | 0.02 | 0.02 | 92 | 1014.8 |
| 20260509092026 | 39 | 0 | 0.0 | 0.0 | 0.02 | 0.02 | 0.02 | 91 | 1014.7 |
| 20260509091602 | 39 | 0 | 0.0 | 0.0 | 0.02 | 0.02 | 0.02 | 91 | 1014.6 |
| 20260509091028 | 39 | 0 | 0.0 | 0.0 | 0.01 | 0.01 | 0.01 | 90 | 1014.8 |
| 20260509090525 | 39 | 0 | 0.0 | 0.0 | 0.01 | 0.01 | 0.01 | 89 | 1014.9 |
| 20260509090046 | 39 | 0 | 0.0 | 0.0 | 0.00 | 0.00 | 0.00 | 88 | 1014.8 |
| 20260509085525 | 39 | 0 | 0.0 | 0.0 | 0.00 | 0.00 | 0.00 | 87 | 1014.9 |
| 20260509085025 | 39 | 0 | 0.0 | 0.0 | 0.00 | 0.00 | 0.00 | 86 | 1014.8 |
| 20260509084546 | 39 | 0 | 0.0 | 0.0 | 0.00 | 0.00 | 0.00 | 86 | 1014.8 |
| 20260509084030 | 39 | 0 | 0.0 | 0.0 | 0.00 | 0.00 | 0.00 | 86 | 1014.8 |
| 20260509083526 | 39 | 0 | 0.0 | 0.0 | 0.00 | 0.00 | 0.00 | 86 | 1014.6 |
| 20260509083041 | 39 | 0 | 0.0 | 0.0 | 0.00 | 0.00 | 0.00 | 86 | 1014.6 |
| 20260509082526 | 39 | 0 | 0.0 | 0.0 | 0.00 | 0.00 | 0.00 | 87 | 1014.4 |
| 20260509082026 | 39 | 0 | 0.0 | 0.0 | 0.00 | 0.00 | 0.00 | 87 | 1014.5 |
| 20260509081543 | 39 | 0 | 0.0 | 0.0 | 0.00 | 0.00 | 0.00 | 87 | 1014.4 |
| 20260509081026 | 38 | 0 | 0.0 | 0.0 | 0.00 | 0.00 | 0.00 | 87 | 1014.2 |
| 20260509080526 | 38 | 0 | 0.0 | 0.0 | 0.00 | 0.00 | 0.00 | 88 | 1014.2 |
| 20260509080040 | 38 | 0 | 0.0 | 0.0 | 0.00 | 0.00 | 0.00 | 89 | 1014.2 |
| 20260509075530 | 38 | 0 | 0.0 | 0.0 | 0.00 | 0.00 | 0.00 | 90 | 1014.3 |
| 20260509075026 | 38 | 0 | 0.0 | 0.0 | 0.00 | 0.00 | 0.00 | 90 | 1014.2 |
| 20260509074552 | 38 | 0 | 0.0 | 0.0 | 0.00 | 0.00 | 0.00 | 90 | 1014.4 |
| 20260509074026 | 37 | 0 | 0.0 | 0.0 | 0.00 | 0.00 | 0.00 | 91 | 1014.3 |
| 20260509073526 | 37 | 0 | 0.0 | 0.0 | 0.00 | 0.00 | 0.00 | 91 | 1014.2 |
| 20260509073111 | 37 | 0 | 0.0 | 0.0 | 0.00 | 0.00 | 0.00 | 91 | 1014.3 |
| 20260509072526 | 37 | 0 | 0.0 | 0.0 | 0.00 | 0.00 | 0.00 | 91 | 1014.5 |
| 20260509072029 | 36 | 0 | 0.0 | 0.0 | 0.00 | 0.00 | 0.00 | 91 | 1014.2 |
| 20260509071543 | 36 | 0 | 0.0 | 0.0 | 0.00 | 0.00 | 0.00 | 91 | 1014.4 |
| 20260509071029 | 36 | 0 | 0.0 | 0.0 | 0.00 | 0.00 | 0.00 | 91 | 1014.3 |
| 20260509070526 | 36 | 0 | 0.0 | 0.0 | 0.00 | 0.00 | 0.00 | 91 | 1014.3 |
| 20260509070136 | 36 | 0 | 0.0 | 0.0 | 0.00 | 0.00 | 0.00 | 91 | 1014.2 |
| 20260509065526 | 36 | 0 | 0.0 | 0.0 | 0.00 | 0.00 | 0.00 | 91 | 1014.3 |
| 20260509065026 | 36 | 0 | 0.0 | 0.0 | 0.00 | 0.00 | 0.00 | 90 | 1014.3 |
| 20260509064538 | 36 | 0 | 0.0 | 0.0 | 0.00 | 0.00 | 0.00 | 90 | 1014.2 |
| 20260509064030 | 36 | 0 | 0.0 | 0.0 | 0.00 | 0.00 | 0.00 | 90 | 1014.1 |
| 20260509063526 | 36 | 0 | 0.0 | 0.0 | 0.00 | 0.00 | 0.00 | 90 | 1014.2 |
| 20260509063037 | 37 | 0 | 0.0 | 0.0 | 0.00 | 0.00 | 0.00 | 90 | 1014.4 |
| 20260509062529 | 36 | 0 | 0.0 | 0.0 | 0.00 | 0.00 | 0.00 | 90 | 1014.4 |
| 20260509062030 | 36 | 0 | 0.0 | 0.0 | 0.00 | 0.00 | 0.00 | 90 | 1014.4 |
| 20260509061542 | 36 | 0 | 0.0 | 0.0 | 0.00 | 0.00 | 0.00 | 90 | 1014.5 |
| 20260509061026 | 36 | 0 | 0.0 | 0.0 | 0.00 | 0.00 | 0.00 | 90 | 1014.6 |
| 20260509060529 | 36 | 0 | 0.0 | 0.0 | 0.00 | 0.00 | 0.00 | 89 | 1014.6 |
| 20260509060057 | 36 | 0 | 0.0 | 0.0 | 0.00 | 0.00 | 0.00 | 89 | 1014.5 |
| 20260509055526 | 36 | 0 | 0.0 | 0.0 | 0.00 | 0.00 | 0.00 | 89 | 1014.6 |
| 20260509055033 | 36 | 0 | 0.0 | 0.0 | 0.00 | 0.00 | 0.00 | 89 | 1014.6 |
| 20260509054547 | 36 | 0 | 0.0 | 0.0 | 0.00 | 0.00 | 0.00 | 88 | 1014.4 |
| 20260509054026 | 37 | 0 | 0.0 | 0.0 | 0.00 | 0.00 | 0.00 | 88 | 1014.5 |
| 20260509053529 | 37 | 0 | 0.0 | 0.9 | 0.00 | 0.00 | 0.00 | 87 | 1014.5 |
| 20260509053040 | 37 | 0 | 0.0 | 0.9 | 0.00 | 0.00 | 0.00 | 88 | 1014.6 |
| 20260509052525 | 37 | 0 | 0.0 | 0.0 | 0.00 | 0.00 | 0.00 | 87 | 1014.4 |
| 20260509052027 | 37 | 0 | 0.0 | 0.0 | 0.00 | 0.00 | 0.00 | 87 | 1014.1 |
| 20260509051535 | 37 | 0 | 0.0 | 0.0 | 0.00 | 0.00 | 0.00 | 87 | 1014.0 |
| 20260509051026 | 38 | 152 | 0.0 | 0.0 | 0.00 | 0.00 | 0.00 | 86 | 1014.2 |
| 20260509050529 | 38 | 0 | 0.0 | 0.0 | 0.00 | 0.00 | 0.00 | 86 | 1014.3 |
| 20260509050042 | 38 | 0 | 0.0 | 0.0 | 0.00 | 0.00 | 0.00 | 85 | 1014.2 |
| 20260509045525 | 39 | 0 | 0.0 | 0.0 | 0.00 | 0.00 | 0.00 | 84 | 1014.1 |
| 20260509045026 | 39 | 0 | 0.0 | 0.0 | 0.00 | 0.00 | 0.00 | 84 | 1014.3 |
| 20260509044555 | 39 | 0 | 0.0 | 0.0 | 0.00 | 0.00 | 0.00 | 84 | 1014.1 |
| 20260509044029 | 40 | 0 | 0.0 | 0.0 | 0.00 | 0.00 | 0.00 | 84 | 1014.0 |
| 20260509043526 | 40 | 0 | 0.0 | 0.0 | 0.00 | 0.00 | 0.00 | 84 | 1014.2 |
| 20260509043038 | 40 | 0 | 0.0 | 0.0 | 0.00 | 0.00 | 0.00 | 84 | 1014.1 |
| 20260509042526 | 40 | 0 | 0.0 | 1.7 | 0.00 | 0.00 | 0.00 | 84 | 1014.2 |
| 20260509042026 | 40 | 0 | 0.0 | 1.7 | 0.00 | 0.00 | 0.00 | 84 | 1014.3 |
| 20260509041546 | 40 | 154 | 0.0 | 1.7 | 0.00 | 0.00 | 0.00 | 83 | 1014.1 |
| 20260509041025 | 40 | 0 | 0.0 | 0.9 | 0.00 | 0.00 | 0.00 | 85 | 1014.0 |
| 20260509040526 | 39 | 336 | 0.0 | 0.9 | 0.00 | 0.00 | 0.00 | 87 | 1014.1 |
| 20260509040104 | 39 | 0 | 0.0 | 0.0 | 0.00 | 0.00 | 0.00 | 87 | 1014.1 |
| 20260509035526 | 39 | 0 | 0.0 | 0.0 | 0.00 | 0.00 | 0.00 | 87 | 1014.0 |
| 20260509035029 | 39 | 0 | 0.0 | 0.0 | 0.00 | 0.00 | 0.00 | 87 | 1014.1 |
| 20260509034548 | 39 | 0 | 0.0 | 0.0 | 0.00 | 0.00 | 0.00 | 87 | 1014.0 |
| 20260509034029 | 39 | 0 | 0.0 | 0.0 | 0.00 | 0.00 | 0.00 | 87 | 1013.9 |
| 20260509033526 | 38 | 0 | 0.0 | 0.0 | 0.00 | 0.00 | 0.00 | 87 | 1013.8 |
| 20260509033045 | 38 | 0 | 0.0 | 0.0 | 0.00 | 0.00 | 0.00 | 86 | 1013.9 |
| 20260509032527 | 38 | 0 | 0.0 | 0.0 | 0.00 | 0.00 | 0.00 | 87 | 1013.9 |
| 20260509032026 | 38 | 0 | 0.0 | 0.0 | 0.00 | 0.00 | 0.00 | 86 | 1013.9 |
| 20260509031544 | 38 | 0 | 0.0 | 0.0 | 0.00 | 0.00 | 0.00 | 85 | 1014.0 |
| 20260509031026 | 38 | 0 | 0.0 | 0.0 | 0.00 | 0.00 | 0.00 | 84 | 1014.0 |
| 20260509030526 | 38 | 0 | 0.0 | 0.0 | 0.00 | 0.00 | 0.00 | 84 | 1014.0 |
| 20260509030038 | 39 | 0 | 0.0 | 0.0 | 0.00 | 0.00 | 0.00 | 84 | 1013.8 |
| 20260509025525 | 39 | 0 | 0.0 | 0.0 | 0.00 | 0.00 | 0.00 | 84 | 1013.8 |
| 20260509025026 | 39 | 0 | 0.0 | 0.0 | 0.00 | 0.00 | 0.00 | 83 | 1013.8 |
| 20260509024536 | 39 | 0 | 0.0 | 0.0 | 0.00 | 0.00 | 0.00 | 83 | 1013.7 |
| 20260509024029 | 39 | 0 | 0.0 | 0.0 | 0.00 | 0.00 | 0.00 | 83 | 1013.7 |
| 20260509023526 | 39 | 0 | 0.0 | 0.0 | 0.00 | 0.00 | 0.00 | 83 | 1013.6 |
| 20260509023044 | 40 | 0 | 0.0 | 0.9 | 0.00 | 0.00 | 0.00 | 83 | 1013.6 |
| 20260509022525 | 40 | 0 | 0.0 | 0.9 | 0.00 | 0.00 | 0.00 | 82 | 1013.6 |
| 20260509022026 | 40 | 0 | 0.0 | 0.0 | 0.00 | 0.00 | 0.00 | 82 | 1013.6 |
| 20260509021544 | 40 | 0 | 0.0 | 0.0 | 0.00 | 0.00 | 0.00 | 82 | 1013.8 |
| 20260509021032 | 41 | 0 | 0.0 | 0.0 | 0.00 | 0.00 | 0.00 | 81 | 1013.7 |
| 20260509020526 | 41 | 0 | 0.0 | 0.0 | 0.00 | 0.00 | 0.00 | 81 | 1013.5 |
| 20260509020042 | 41 | 0 | 0.0 | 0.0 | 0.00 | 0.00 | 0.00 | 80 | 1013.6 |
| 20260509015526 | 41 | 0 | 0.0 | 0.0 | 0.00 | 0.00 | 0.00 | 79 | 1013.6 |
| 20260509015027 | 41 | 0 | 0.0 | 0.0 | 0.00 | 0.00 | 0.00 | 79 | 1013.4 |
| 20260509014541 | 41 | 0 | 0.0 | 0.0 | 0.00 | 0.00 | 0.00 | 78 | 1013.4 |
| 20260509014029 | 42 | 0 | 0.0 | 0.9 | 0.00 | 0.00 | 0.00 | 77 | 1013.3 |
| 20260509013529 | 42 | 0 | 0.0 | 0.9 | 0.00 | 0.00 | 0.00 | 77 | 1013.2 |
| 20260509013044 | 42 | 0 | 0.0 | 0.9 | 0.00 | 0.00 | 0.00 | 76 | 1013.1 |
| 20260509012529 | 43 | 0 | 0.0 | 0.9 | 0.00 | 0.00 | 0.00 | 76 | 1013.2 |
| 20260509012029 | 43 | 0 | 0.0 | 0.9 | 0.00 | 0.00 | 0.00 | 75 | 1013.0 |
| 20260509011557 | 43 | 0 | 0.0 | 0.9 | 0.00 | 0.00 | 0.00 | 74 | 1012.9 |
| 20260509011028 | 43 | 0 | 0.0 | 0.9 | 0.00 | 0.00 | 0.00 | 74 | 1012.8 |
| 20260509010526 | 43 | 0 | 0.0 | 0.0 | 0.00 | 0.00 | 0.00 | 72 | 1012.6 |
| 20260509010048 | 44 | 0 | 0.0 | 0.0 | 0.00 | 0.00 | 0.00 | 72 | 1012.7 |
| 20260509005529 | 44 | 0 | 0.0 | 0.0 | 0.00 | 0.00 | 0.00 | 72 | 1012.6 |
| 20260509005028 | 44 | 0 | 0.0 | 0.0 | 0.00 | 0.00 | 0.00 | 70 | 1012.5 |
| 20260509004553 | 45 | 0 | 0.0 | 0.0 | 0.00 | 0.00 | 0.00 | 71 | 1012.4 |
| 20260509004028 | 45 | 0 | 0.0 | 0.0 | 0.00 | 0.00 | 0.00 | 71 | 1012.5 |
| 20260509003531 | 46 | 0 | 0.0 | 0.0 | 0.00 | 0.00 | 0.00 | 70 | 1012.3 |
| 20260509003043 | 46 | 0 | 0.0 | 0.0 | 0.00 | 0.00 | 0.00 | 70 | 1012.3 |
| 20260509002531 | 47 | 312 | 0.0 | 0.0 | 0.00 | 0.00 | 0.00 | 69 | 1012.2 |
| 20260509002028 | 47 | 0 | 0.0 | 0.0 | 0.00 | 0.00 | 0.00 | 69 | 1012.1 |
| 20260509001541 | 47 | 0 | 0.0 | 0.0 | 0.00 | 0.00 | 0.00 | 66 | 1012.2 |
| 20260509001029 | 48 | 0 | 0.0 | 3.5 | 0.00 | 0.00 | 0.00 | 66 | 1012.2 |
| 20260509000529 | 48 | 0 | 0.0 | 3.5 | 0.00 | 0.00 | 0.00 | 66 | 1011.9 |
| 20260509000035 | 48 | 117 | 0.0 | 0.9 | 0.00 | 0.00 | 0.00 | 66 | 1012.1 |
| 20260508235530 | 49 | 0 | 0.0 | 0.9 | 0.00 | 0.00 | 0.00 | 64 | 1011.9 |
| 20260508235028 | 49 | 0 | 0.0 | 0.9 | 0.00 | 0.00 | 0.00 | 64 | 1011.9 |
| 20260508234544 | 50 | 39 | 0.0 | 0.9 | 0.00 | 0.00 | 0.00 | 63 | 1011.7 |
| 20260508234029 | 51 | 0 | 0.0 | 0.9 | 0.00 | 0.00 | 0.00 | 61 | 1011.7 |
| 20260508233529 | 51 | 0 | 0.0 | 0.9 | 0.00 | 0.00 | 0.00 | 59 | 1011.6 |
| 20260508233044 | 52 | 0 | 0.0 | 0.9 | 0.00 | 0.00 | 0.00 | 56 | 1011.5 |
| 20260508232528 | 53 | 0 | 0.0 | 1.7 | 0.00 | 0.00 | 0.00 | 56 | 1011.4 |
| 20260508232028 | 53 | 0 | 0.0 | 1.7 | 0.00 | 0.00 | 0.00 | 53 | 1011.4 |
| 20260508231542 | 53 | 338 | 0.0 | 7.8 | 0.00 | 0.00 | 0.00 | 53 | 1011.5 |
| 20260508231029 | 53 | 354 | 0.0 | 7.8 | 0.00 | 0.00 | 0.00 | 53 | 1011.4 |
| 20260508230529 | 54 | 326 | 0.9 | 7.8 | 0.00 | 0.00 | 0.00 | 51 | 1011.3 |
| 20260508230042 | 54 | 321 | 1.7 | 8.7 | 0.00 | 0.00 | 0.00 | 51 | 1011.4 |
| 20260508225528 | 54 | 332 | 1.7 | 10.4 | 0.00 | 0.00 | 0.00 | 50 | 1011.4 |
| 20260508225032 | 55 | 229 | 3.5 | 10.4 | 0.00 | 0.00 | 0.00 | 49 | 1011.3 |
| 20260508224541 | 56 | 291 | 1.7 | 6.1 | 0.00 | 0.00 | 0.00 | 50 | 1011.3 |
| 20260508224029 | 56 | 352 | 1.7 | 7.8 | 0.00 | 0.00 | 0.00 | 50 | 1011.3 |
| 20260508223529 | 56 | 309 | 2.6 | 7.8 | 0.00 | 0.00 | 0.00 | 49 | 1011.3 |
| 20260508223042 | 57 | 304 | 0.9 | 11.3 | 0.00 | 0.00 | 0.00 | 49 | 1011.1 |
| 20260508222529 | 56 | 343 | 0.9 | 11.3 | 0.00 | 0.00 | 0.00 | 50 | 1011.1 |
| 20260508222029 | 56 | 345 | 2.6 | 8.7 | 0.00 | 0.00 | 0.00 | 48 | 1011.2 |
| 20260508221545 | 57 | 322 | 3.5 | 8.7 | 0.00 | 0.00 | 0.00 | 47 | 1011.0 |